Regional Weather Roundup
Issued by NWS

Home | Current Version | Previous Version | Text Only | Print | Product List | Glossary On
Versions: 1 2 3 4 5 6 7 8 9 10 11 12 13 14 15 16 17 18 19 20 21 22 23 24 25 26 27 28 29 30 31 32 33 34 35 36 37 38 39 40 41 42 43 44 45 46 47 48 49 50
000
ASUS44 KFWD 311515
RWRTX
NORTH TEXAS HOURLY WEATHER ROUNDUP
NATIONAL WEATHER SERVICE FORT WORTH TX
1000 AM CDT FRI JUL 31 2015

NOTE: "FAIR" INDICATES FEW OR NO CLOUDS BELOW 12,000 FEET WITH NO
SIGNIFICANT WEATHER AND/OR OBSTRUCTIONS TO VISIBILITY.

TXZ118-119-311600-
DALLAS/FORT WORTH METROPLEX

CITY           SKY/WX    TMP DP  RH WIND       PRES   REMARKS
DFW AIRPORT    MOSUNNY   87  72  60 E9        30.08F HX  93
DALLAS LOVE    SUNNY     87  72  60 SE13      30.08F HX  93
FTW MEACHAM    SUNNY     88  72  58 E6        30.08S HX  94
DAL-EXECUTIVE  SUNNY     86  71  60 E10       30.09S HX  91
FTW-ALLIANCE   MOSUNNY   87  73  62 SE6       30.09S HX  94
FTW-NAS-JRB    MOSUNNY   88  73  61 E9        30.09S HX  95
FTW-SPINKS     SUNNY     88  72  58 SE5       30.11R HX  94
ARLINGTON      SUNNY     87  70  56 E8        30.09S HX  92
GRAND PRAIRIE  SUNNY     86  73  66 NE7       30.10S HX  93
ADDISON        SUNNY     86  72  62 E10       30.11  HX  92
MESQUITE       SUNNY     84  66  54 NE8       30.09F
LANCASTER      SUNNY     85  68  56 E7        30.10S
$$

TXZ091>094-102>105-117-120-121-131>134-311600-
NORTH CENTRAL TEXAS

CITY           SKY/WX    TMP DP  RH WIND       PRES   REMARKS
SHRMAN/DENISON SUNNY     85  72  63 E12       30.12S HX  91
GAINESVILLE    SUNNY     85  72  65 E9        30.13R HX  90
BOWIE          SUNNY     83  72  68 SE6       30.11F
DECATUR        SUNNY     86  70  59 SE5       30.11S HX  91
DENTON         SUNNY     86  73  65 E9        30.09S HX  93
MCKINNEY       SUNNY     85  68  56 E7        30.10S
GREENVILLE     SUNNY     86  63  45 E9        30.11S
ROCKWALL       SUNNY     85  68  56 SE12      30.09S
TERRELL        SUNNY     86  65  49 E10       30.10S
WAXAHACHIE     SUNNY     85  73  66 E6        30.10S HX  92
CLEBURNE       SUNNY     88  75  66 E7        30.11S HX  97
GRANBURY       SUNNY     87  71  57 SE5       30.10S HX  92
$$

TXZ083>090-098>101-113>116-127>130-139>142-154-155-311600-
WESTERN NORTH TEXAS

CITY           SKY/WX    TMP DP  RH WIND       PRES   REMARKS
WICHITA FALLS  MOSUNNY   84  72  67 VRB6      30.11S
WF-KICKAPOO    MOSUNNY   85  72  65 SE5       30.12S HX  90
VERNON           N/A    N/A N/A N/A MISG        N/A
ABILENE        SUNNY     88  62  41 SW3       30.14S
ABILENE-DYESS  SUNNY     91  62  38 W7        30.13S HX  91
BRECKENRIDGE   SUNNY     89  64  41 CALM      30.11S HX  90
GRAHAM         SUNNY     87  73  62 CALM      30.09F HX  94
MINERAL WELLS  SUNNY     86  72  62 SE6       30.09S HX  92
STEPHENVILLE   SUNNY     88  68  51 CALM      30.14R HX  91
COMANCHE       SUNNY     88  65  46 NW3       30.12S
BROWNWOOD      SUNNY     90  64  43 W5        30.12S HX  91
COLEMAN        SUNNY     89  65  43 W5        30.14S HX  91
BRADY          SUNNY     91  64  40 NW7       30.13S HX  93
$$

TXZ143>147-156>162-174-175-311600-
CENTRAL TEXAS

CITY           SKY/WX    TMP DP  RH WIND       PRES   REMARKS
WACO           SUNNY     87  72  60 E5        30.07S HX  93
WACO-TSTC      SUNNY     88  73  62 CALM      30.07S HX  96
WACO-MCGREGOR  SUNNY     88  70  55 E6        30.09S HX  92
HILLSBORO      SUNNY     87  70  56 E8        30.09S HX  92
CORSICANA      SUNNY     87  73  62 E8        30.09S HX  94
MEXIA          SUNNY     87  73  63 NE9G20    30.07S HX  94
HEARNE         SUNNY     87  74  64 E3        30.05F HX  96
CAMERON        SUNNY     87  74  65 E3        30.06S HX  95
TEMPLE         SUNNY     88  70  55 NE7       30.07F HX  92
KILLEEN        SUNNY     92  65  40 N10       30.07S HX  94
KILLEEN-SKYLRK SUNNY     88  70  55 NE6       30.07S HX  92
FORT HOOD      SUNNY     86  69  56 E6        30.07R HX  91
GATESVILLE     SUNNY     88  70  55 CALM      30.10S HX  92
HAMILTON       SUNNY     92  61  35 N8        30.11S HX  91
LAMPASAS       SUNNY     91  65  42 NW7       30.09S HX  93
$$

TXZ095>097-106>112-122>126-135>138-148>153-164>167-311600-
EAST TEXAS

CITY           SKY/WX    TMP DP  RH WIND       PRES   REMARKS
PARIS          SUNNY     84  63  48 E17       30.12S
SULPHUR SPRNGS SUNNY     84  63  49 E12G17    30.12F
MOUNT PLEASANT SUNNY     84  63  49 E9        30.12S
GILMER         SUNNY     81  64  55 E8        30.10F
MINEOLA        SUNNY     84  64  51 NE5       30.11S
TYLER          SUNNY     86  66  51 E9        30.09S
LONGVIEW       SUNNY     86  67  52 E9        30.08F
MARSHALL       SUNNY     86  66  51 E9        30.11F
ATHENS         SUNNY     82  66  57 E8        30.07S
PALESTINE      SUNNY     84  71  64 E8        30.08F
JACKSONVILLE   SUNNY     84  65  52 E8        30.10F
HENDERSON      SUNNY     84  64  50 E10G16    30.09F
CENTER         FAIR      84  67  55 NE8       30.07S
NACOGDOCHES    CLOUDY    81  68  65 E6        30.07S
LUFKIN         PTSUNNY   82  71  69 NE8       30.06F
$$

SUPPLEMENTAL OBSERVATIONS (CENTRAL)

CITY           SKY/WX    TMP DP  RH WIND       PRES   REMARKS
LAKE TEXOMA      N/A     82  64  54 E8          N/A
CADDO GRASSLND   N/A     84  63  48 SE6         N/A
PAT MAYSE LAKE   N/A     82  64  54 E7          N/A
GREENVILLE       N/A     84  61  45 E10         N/A
CEDAR HILL       N/A     90  70  51 E2G10       N/A  HX  95
ATHENS           N/A     86  66  51 E9          N/A
LAKE LIMESTONE   N/A     90  72  55 NE7         N/A  HX  96
MCGREGOR         N/A     88  72  58 E6          N/A  HX  94
TEMPLE           N/A     88  72  58 NE7         N/A  HX  94
$$

SUPPLEMENTAL OBSERVATIONS (WEST)

CITY           SKY/WX    TMP DP  RH WIND       PRES   REMARKS
MILLERS CREEK    N/A     91  68  46 SE3         N/A  HX  95
POSSUM KINGDOM   N/A     90  75  62 E5          N/A  HX 100
LBJ GRASSLAND    N/A     88  73  62 E6          N/A  HX  96
GRANBURY         N/A     88  72  58 E6          N/A  HX  94
COMANCHE         N/A     90  64  43 NW7         N/A  HX  91
HAMBY            N/A     90  59  35 W7          N/A
IVIE RESERVOIR   N/A     90  59  35 W8          N/A
COLORADO BEND    N/A    N/A N/A N/A N5          N/A
$$

SUPPLEMENTAL OBSERVATIONS (EAST)

CITY           SKY/WX    TMP DP  RH WIND       PRES   REMARKS
CLARKSVILLE      N/A     84  61  45 E10         N/A
TEXARKANA        N/A     84  66  54 E3G13       N/A
LINDEN           N/A     84  63  48 E6          N/A
CADDO LAKE       N/A     86  64  48 E6          N/A
GILMER           N/A     84  63  48 E7          N/A
HENDERSON        N/A     84  63  48 E10         N/A
LUFKIN           N/A     82  70  65 MISG        N/A
N SABINE NF      N/A     79  75  89 MISG        N/A
S SABINE NF      N/A     82  68  61 CALM        N/A
$$

SUPPLEMENTAL OBSERVATIONS ARE A COLLECTION OF AUTOMATED INSTRUMENTS
THAT ARE MAINTAINED BY A VARIETY OF FEDERAL AND STATE AGENCIES.
CERTAIN ELEMENTS...SUCH AS HUMIDITY VALUES AND SUSTAINED WIND
SPEEDS...MAY BE APPROXIMATED.



USA.gov is the U.S. government's official web portal to all federal, state and local government web resources and services.